DECAYED

STARLINK-3317, 50156 (Decayed)

Orbit data source: Space-Track

STARLINK-3317, 50156 was a payload satellite owned by SpaceX/Seattle (US) in LEO that was launched on Sat, 18 Dec 2021 UTC via an FALCON 9 launch vehicle from the Air Force Western Test Range (AFWTR). Payload-class satellites include a variety of spacecraft equipped with specific instruments for various scientific and technological missions. These include communications satellites like Starlink; space stations such as the ISS; scientific satellites like the Hubble; Earth observation satellites from companies like Planet Labs, Umbra, and HawkEye 360; GPS; miniature CubeSats for education and research; and military/defense satellites.

Not visible in the next 10 days
Identifier
50156, 2021-125A
Orbit
Decayed
Country
Flag of USUS
Related business
Manufacturer
SpaceX/Seattle
Mission
Decayed Commercial Communications
Bus & Motor
STARLINK, Unknown motor
Mass
290 kg wet, ~270 kg dry
Launch date (UTC)
2021-12-18 (4 years ago)
Launch vehicle
FALCON 9
Launch site
Air Force Western Test Range (AFWTR)
Object type
Payload
Rocket body
Debris
Shape & HBR
Box + 1 Pan, 10.1 m
Radar Cross Section
13.562 m², Large (>1 m²)

Expand to show TLE details & history
Last TLE update: 6 months ago

TLE from 6 months ago
0 STARLINK-3317
1 50156U 21125A   25364.95692277  .09119576  12550-4  27065-3 0  9993
2 50156  53.1973 162.7272 0006268 310.3043 137.9596 16.44832279226747
Epoch: 2025-12-30T22:57Z
TLE epoch observation values (Epoch: 2025-12-30T22:57:58.127Z)
Latitude
53.32266°
Longitude
165.78259°
Altitude
162.544 km
Speed
7.813 km/s
True Right ascension
16h 39m 37s
True Declination
53° 08' 34"
Sunlit
Object was in daylight at epoch
Visualization orbit readout
Latitude
Unknown
Longitude
Unknown
Altitude
Unknown
Speed
Unknown
Apparent Right ascension
Unknown
Apparent Declination
Unknown
Sunlit
N/A
Visualization observer readout
Local Sidereal Time
12:34:08
Azimuth
Unknown
Elevation
Unknown
Doppler factor
Unknown
Orbital elements
Apogee altitude
157.336 km
Perigee altitude
149.148 km
Semi-major axis
6,531.379 km
Eccentricity
0.00063
Inclination
53.1973°
RAAN
162.7272°
Arg. of periapsis
310.3043°
True anomaly
138.00767°
Mean anomaly
137.9596°
Eccentric anomaly
137.98364°
Mean motion
4.11184 °/min
Orbital period
87.55 mins
BSTAR
0.00027065
Loading maneuver chart data...
Computing Atmospheric mass density...

Documentation

Showing up to 5 results
|